Starlink 37144

operational
NORAD ID: 68557 Int'l Des: 2026-070 Owner: SPXS Country: US Constellation: starlink
LEOCIRCULAR

About Starlink 37144

Description loading...

Live Position

Loading 3D Globe...

Upcoming Passes

Altitude History

Altitude vs Time

uPlot chart will show altitude changes over time

Two-Line Element Set

1 68557C 26070Q 26093.93798611 -.00237170 00000+0 -29041-3 0 935
2 68557 53.1618 259.3999 0007254 286.7439 146.9793 16.07321208 10
Epoch: Apr 3, 2026 • Age: 29 hours

Current Status

Altitude 263.3 km
Velocity 7.75 km/s
Sub-Earth Point 42.34°N, 132.53°E
Launch Date Apr 2, 2026
Age 1 days
Type internet

Technical Details

Classification Payload
Mass 575.00 kg
Dry Mass 530.00 kg
Total Mass 575.00 kg
Length 0.30 m
Diameter 4.10 m
Span 29.00 m
Shape Box + pan
Manufacturer SPXS
Bus Type Starlink V2MO
Phase Status In Orbit
Owner/State SPXS/US

Large Constellations

Loading constellations...